TimeCST,TemperatureF,Dew PointF,Humidity,Sea Level PressureIn,VisibilityMPH,Wind Direction,Wind SpeedMPH,Gust SpeedMPH,PrecipitationIn,Events,Conditions,WindDirDegrees,DateUTC
12:15 AM,32.0,23.0,69,29.36,10.0,SSW,8.1,-,N/A,,Mostly Cloudy,210,2013-11-17 06:15:00
12:35 AM,30.2,21.2,69,29.37,10.0,West,5.8,-,N/A,,Mostly Cloudy,260,2013-11-17 06:35:00
12:55 AM,32.0,19.4,60,29.37,10.0,SSW,3.5,-,N/A,,Mostly Cloudy,210,2013-11-17 06:55:00
1:15 AM,32.0,21.2,64,29.38,10.0,Calm,Calm,-,N/A,,Overcast,0,2013-11-17 07:15:00
1:35 AM,32.0,23.0,69,29.38,10.0,West,4.6,-,N/A,,Overcast,270,2013-11-17 07:35:00
1:55 AM,32.0,23.0,69,29.38,10.0,Calm,Calm,-,N/A,,Overcast,0,2013-11-17 07:55:00
2:15 AM,30.2,23.0,75,29.38,10.0,Calm,Calm,-,N/A,,Mostly Cloudy,0,2013-11-17 08:15:00
2:35 AM,28.4,23.0,80,29.38,10.0,WSW,5.8,-,N/A,,Partly Cloudy,240,2013-11-17 08:35:00
2:55 AM,32.0,23.0,69,29.39,10.0,WSW,6.9,-,N/A,,Mostly Cloudy,250,2013-11-17 08:55:00
3:15 AM,32.0,23.0,69,29.40,10.0,West,8.1,-,N/A,,Overcast,260,2013-11-17 09:15:00
3:35 AM,32.0,23.0,69,29.41,10.0,West,6.9,-,N/A,,Overcast,280,2013-11-17 09:35:00
3:55 AM,32.0,23.0,69,29.42,10.0,West,6.9,-,N/A,,Overcast,280,2013-11-17 09:55:00
4:15 AM,33.8,23.0,65,29.44,10.0,NW,12.7,-,N/A,,Overcast,310,2013-11-17 10:15:00
4:35 AM,32.0,30.2,93,29.46,2.5,West,17.3,24.2,0.12,Snow,Light Snow,280,2013-11-17 10:35:00
4:55 AM,32.0,32.0,100,29.48,5.0,WNW,11.5,18.4,0.23,Snow,Light Snow,290,2013-11-17 10:55:00
5:15 AM,32.0,30.2,93,29.49,9.0,West,11.5,19.6,0.01,Snow,Light Snow,280,2013-11-17 11:15:00
5:35 AM,32.0,30.2,93,29.50,10.0,West,12.7,-,0.02,Snow,Light Snow,280,2013-11-17 11:35:00
5:55 AM,32.0,30.2,93,29.51,9.0,West,13.8,19.6,0.03,Snow,Light Snow,280,2013-11-17 11:55:00
6:15 AM,32.0,30.2,93,29.53,2.0,West,15.0,21.9,0.15,Snow,Light Snow,280,2013-11-17 12:15:00
6:35 AM,32.0,30.2,93,29.55,1.2,WNW,16.1,24.2,0.72,Snow,Light Snow,290,2013-11-17 12:35:00
6:55 AM,32.0,30.2,93,29.56,1.0,WNW,19.6,27.6,1.62,Snow,Light Snow,290,2013-11-17 12:55:00
7:15 AM,32.0,30.2,93,29.58,1.0,WNW,20.7,29.9,0.39,Snow,Light Snow,290,2013-11-17 13:15:00
7:35 AM,32.0,28.4,87,29.60,1.0,North,-9999.0,-,0.90,Snow,Light Snow,0,2013-11-17 13:35:00
7:55 AM,32.0,28.4,87,29.62,0.8,West,21.9,28.8,1.24,Snow,Light Snow,280,2013-11-17 13:55:00
8:15 AM,32.0,28.4,87,29.65,0.8,WNW,23.0,31.1,0.15,Snow,Light Snow,290,2013-11-17 14:15:00
8:35 AM,32.0,28.4,87,29.67,1.8,WNW,24.2,32.2,0.23,,Scattered Clouds,290,2013-11-17 14:35:00
8:55 AM,32.0,26.6,80,29.69,1.8,WNW,19.6,31.1,0.26,,Mostly Cloudy,290,2013-11-17 14:55:00
9:15 AM,30.2,28.4,93,29.71,2.0,West,16.1,-,0.02,,Mostly Cloudy,280,2013-11-17 15:15:00
9:35 AM,32.0,26.6,80,29.72,10.0,West,20.7,31.1,0.03,,Mostly Cloudy,280,2013-11-17 15:35:00
9:55 AM,32.0,24.8,75,29.72,10.0,WNW,20.7,28.8,0.03,,Mostly Cloudy,290,2013-11-17 15:55:00
10:15 AM,32.0,24.8,75,29.73,10.0,WNW,19.6,31.1,N/A,,Scattered Clouds,290,2013-11-17 16:15:00
10:35 AM,32.0,24.8,75,29.74,10.0,WNW,19.6,26.5,N/A,,Clear,290,2013-11-17 16:35:00
10:55 AM,32.0,23.0,69,29.75,10.0,West,23.0,32.2,N/A,,Clear,280,2013-11-17 16:55:00
11:15 AM,33.8,23.0,65,29.76,10.0,West,26.5,34.5,N/A,,Clear,280,2013-11-17 17:15:00
11:35 AM,33.8,23.0,65,29.77,10.0,West,18.4,26.5,N/A,,Clear,280,2013-11-17 17:35:00
11:55 AM,35.6,23.0,60,29.77,10.0,WNW,23.0,28.8,N/A,,Clear,290,2013-11-17 17:55:00
12:15 PM,35.6,23.0,60,29.78,10.0,WNW,23.0,26.5,N/A,,Clear,290,2013-11-17 18:15:00
12:35 PM,35.6,21.2,56,29.79,10.0,WNW,19.6,29.9,N/A,,Clear,290,2013-11-17 18:35:00
12:55 PM,37.4,19.4,48,29.79,10.0,West,23.0,29.9,N/A,,Clear,280,2013-11-17 18:55:00
1:15 PM,37.4,19.4,48,29.80,10.0,West,20.7,28.8,N/A,,Clear,280,2013-11-17 19:15:00
1:35 PM,37.4,17.6,45,29.81,10.0,West,20.7,29.9,N/A,,Clear,280,2013-11-17 19:35:00
1:55 PM,37.4,17.6,45,29.81,10.0,WNW,17.3,25.3,N/A,,Clear,290,2013-11-17 19:55:00
2:15 PM,37.4,17.6,45,29.82,10.0,WNW,18.4,24.2,N/A,,Clear,300,2013-11-17 20:15:00
2:35 PM,37.4,17.6,45,29.82,10.0,WNW,18.4,-,N/A,,Clear,300,2013-11-17 20:35:00
2:55 PM,37.4,17.6,45,29.83,10.0,West,19.6,27.6,N/A,,Clear,280,2013-11-17 20:55:00
3:15 PM,39.2,17.6,42,29.84,10.0,West,17.3,23.0,N/A,,Clear,270,2013-11-17 21:15:00
3:35 PM,39.2,17.6,42,29.84,10.0,West,17.3,24.2,N/A,,Clear,260,2013-11-17 21:35:00
3:55 PM,39.2,19.4,45,29.86,10.0,West,12.7,19.6,N/A,,Clear,260,2013-11-17 21:55:00
4:15 PM,39.2,17.6,42,29.86,10.0,West,13.8,21.9,N/A,,Clear,270,2013-11-17 22:15:00
4:35 PM,39.2,17.6,42,29.87,10.0,West,15.0,24.2,N/A,,Clear,270,2013-11-17 22:35:00
4:55 PM,37.4,17.6,45,29.88,10.0,West,11.5,-,N/A,,Clear,280,2013-11-17 22:55:00
5:15 PM,35.6,17.6,48,29.88,10.0,West,10.4,-,N/A,,Clear,280,2013-11-17 23:15:00
5:35 PM,33.8,17.6,52,29.89,10.0,West,8.1,-,N/A,,Clear,270,2013-11-17 23:35:00
5:55 PM,32.0,17.6,55,29.89,10.0,West,6.9,-,N/A,,Clear,270,2013-11-17 23:55:00
6:15 PM,32.0,15.8,51,29.90,10.0,West,5.8,-,N/A,,Clear,270,2013-11-18 00:15:00
6:35 PM,32.0,15.8,51,29.90,10.0,West,5.8,-,N/A,,Clear,260,2013-11-18 00:35:00
6:55 PM,32.0,14.0,48,29.91,10.0,West,9.2,-,N/A,,Clear,260,2013-11-18 00:55:00
7:15 PM,32.0,14.0,48,29.91,10.0,West,6.9,-,N/A,,Clear,270,2013-11-18 01:15:00
7:35 PM,32.0,14.0,48,29.92,10.0,West,6.9,-,N/A,,Clear,270,2013-11-18 01:35:00
7:55 PM,33.8,14.0,44,29.94,10.0,West,10.4,-,N/A,,Partly Cloudy,280,2013-11-18 01:55:00
8:15 PM,35.6,15.8,44,29.95,10.0,West,12.7,17.3,N/A,,Mostly Cloudy,270,2013-11-18 02:15:00
8:35 PM,35.6,15.8,44,29.96,10.0,West,9.2,-,N/A,,Overcast,270,2013-11-18 02:35:00
8:55 PM,32.0,15.8,51,29.97,10.0,West,6.9,-,N/A,,Overcast,260,2013-11-18 02:55:00
9:15 PM,32.0,15.8,51,29.96,10.0,West,8.1,-,N/A,,Overcast,260,2013-11-18 03:15:00
9:35 PM,32.0,15.8,51,29.96,10.0,WSW,9.2,-,N/A,,Mostly Cloudy,240,2013-11-18 03:35:00
9:55 PM,32.0,15.8,51,29.96,10.0,WSW,10.4,-,N/A,,Clear,240,2013-11-18 03:55:00
10:15 PM,32.0,15.8,51,29.97,10.0,WSW,10.4,-,N/A,,Clear,250,2013-11-18 04:15:00
10:35 PM,32.0,15.8,51,29.97,10.0,WSW,11.5,-,N/A,,Clear,250,2013-11-18 04:35:00
10:55 PM,32.0,15.8,51,29.98,10.0,WSW,10.4,-,N/A,,Clear,240,2013-11-18 04:55:00
11:15 PM,32.0,15.8,51,29.98,10.0,WSW,11.5,-,N/A,,Clear,240,2013-11-18 05:15:00
11:35 PM,32.0,15.8,51,29.99,10.0,WSW,10.4,-,N/A,,Clear,250,2013-11-18 05:35:00
11:55 PM,32.0,15.8,51,29.99,10.0,WSW,10.4,-,N/A,,Clear,250,2013-11-18 05:55:00